Time,TemperatureF,DewpointF,PressureIn,WindDirection,WindDirectionDegrees,WindSpeedMPH,WindSpeedGustMPH,Humidity,HourlyPrecipIn,Conditions,Clouds,dailyrainin,SoftwareType,DateUTC
2013-02-02 00:00:00,9.0,-1.0,-100.00,NNE,25,13.0,24.0,64,0.00,,,0.00,,2013-02-02 09:00:00,
2013-02-02 00:32:00,9.0,-1.0,-100.00,NNE,25,13.0,24.0,64,0.00,,,0.00,,2013-02-02 09:32:00,
2013-02-02 00:42:00,9.0,-1.0,-100.00,NNE,25,13.0,24.0,64,0.00,,,0.00,,2013-02-02 09:42:00,
2013-02-02 00:52:00,9.0,-1.0,-100.00,NNE,25,13.0,24.0,64,0.00,,,0.00,,2013-02-02 09:52:00,
2013-02-02 01:00:00,11.0,-2.0,-100.00,NNE,24,13.0,26.0,55,0.00,,,0.00,,2013-02-02 10:00:00,
2013-02-02 01:32:00,11.0,-2.0,-100.00,NNE,24,13.0,26.0,55,0.00,,,0.00,,2013-02-02 10:32:00,
2013-02-02 01:42:00,11.0,-2.0,-100.00,NNE,24,13.0,26.0,55,0.00,,,0.00,,2013-02-02 10:42:00,
2013-02-02 01:52:00,11.0,-2.0,-100.00,NNE,24,13.0,26.0,55,0.00,,,0.00,,2013-02-02 10:52:00,
2013-02-02 02:00:00,11.0,-2.0,-100.00,NNE,23,13.0,21.0,54,0.00,,,0.00,,2013-02-02 11:00:00,
2013-02-02 02:32:00,11.0,-2.0,-100.00,NNE,23,13.0,21.0,54,0.00,,,0.00,,2013-02-02 11:32:00,
2013-02-02 02:42:00,11.0,-2.0,-100.00,NNE,23,13.0,21.0,54,0.00,,,0.00,,2013-02-02 11:42:00,
2013-02-02 02:52:00,11.0,-2.0,-100.00,NNE,23,13.0,21.0,54,0.00,,,0.00,,2013-02-02 11:52:00,
2013-02-02 03:00:00,12.0,-1.0,-100.00,NNE,28,15.0,26.0,54,0.00,,,0.00,,2013-02-02 12:00:00,
2013-02-02 03:32:00,12.0,-1.0,-100.00,NNE,28,15.0,26.0,54,0.00,,,0.00,,2013-02-02 12:32:00,
2013-02-02 03:42:00,12.0,-1.0,-100.00,NNE,28,15.0,26.0,54,0.00,,,0.00,,2013-02-02 12:42:00,
2013-02-02 03:52:00,12.0,-1.0,-100.00,NNE,28,15.0,26.0,54,0.00,,,0.00,,2013-02-02 12:52:00,
2013-02-02 04:00:00,11.0,-1.0,-100.00,NNE,19,13.0,23.0,57,0.00,,,0.00,,2013-02-02 13:00:00,
2013-02-02 04:33:00,11.0,-1.0,-100.00,NNE,19,13.0,23.0,57,0.00,,,0.00,,2013-02-02 13:33:00,
2013-02-02 04:42:00,11.0,-1.0,-100.00,NNE,19,13.0,23.0,57,0.00,,,0.00,,2013-02-02 13:42:00,
2013-02-02 04:52:00,11.0,-1.0,-100.00,NNE,19,13.0,23.0,57,0.00,,,0.00,,2013-02-02 13:52:00,
2013-02-02 05:00:00,11.0,-2.0,-100.00,NNE,27,12.0,26.0,56,0.00,,,0.00,,2013-02-02 14:00:00,
2013-02-02 05:33:00,11.0,-2.0,-100.00,NNE,27,12.0,26.0,56,0.00,,,0.00,,2013-02-02 14:33:00,
2013-02-02 05:42:00,11.0,-2.0,-100.00,NNE,27,12.0,26.0,56,0.00,,,0.00,,2013-02-02 14:42:00,
2013-02-02 05:52:00,11.0,-2.0,-100.00,NNE,27,12.0,26.0,56,0.00,,,0.00,,2013-02-02 14:52:00,
2013-02-02 06:00:00,13.0,-2.0,-100.00,NE,42,10.0,24.0,50,0.00,,,0.00,,2013-02-02 15:00:00,
2013-02-02 06:33:00,13.0,-2.0,-100.00,NE,42,10.0,24.0,50,0.00,,,0.00,,2013-02-02 15:33:00,
2013-02-02 06:42:00,13.0,-2.0,-100.00,NE,42,10.0,24.0,50,0.00,,,0.00,,2013-02-02 15:42:00,
2013-02-02 06:52:00,13.0,-2.0,-100.00,NE,42,10.0,24.0,50,0.00,,,0.00,,2013-02-02 15:52:00,
2013-02-02 07:00:00,13.0,-2.0,-100.00,NE,34,8.0,20.0,50,0.00,,,0.00,,2013-02-02 16:00:00,
2013-02-02 07:32:00,13.0,-2.0,-100.00,NE,34,8.0,20.0,50,0.00,,,0.00,,2013-02-02 16:32:00,
2013-02-02 07:42:00,13.0,-2.0,-100.00,NE,34,8.0,20.0,50,0.00,,,0.00,,2013-02-02 16:42:00,
2013-02-02 07:52:00,13.0,-2.0,-100.00,NE,34,8.0,20.0,50,0.00,,,0.00,,2013-02-02 16:52:00,
2013-02-02 08:00:00,13.0,-2.0,-100.00,NNE,31,9.0,17.0,51,0.00,,,0.00,,2013-02-02 17:00:00,
2013-02-02 08:33:00,13.0,-2.0,-100.00,NNE,31,9.0,17.0,51,0.00,,,0.00,,2013-02-02 17:33:00,
2013-02-02 08:42:00,13.0,-2.0,-100.00,NNE,31,9.0,17.0,51,0.00,,,0.00,,2013-02-02 17:42:00,
2013-02-02 08:52:00,13.0,-2.0,-100.00,NNE,31,9.0,17.0,51,0.00,,,0.00,,2013-02-02 17:52:00,
2013-02-02 09:00:00,15.0,-1.0,-100.00,NE,46,10.0,19.0,49,0.00,,,0.00,,2013-02-02 18:00:00,
2013-02-02 09:32:00,15.0,-1.0,-100.00,NE,46,10.0,19.0,49,0.00,,,0.00,,2013-02-02 18:32:00,
2013-02-02 09:42:00,15.0,-1.0,-100.00,NE,46,10.0,19.0,49,0.00,,,0.00,,2013-02-02 18:42:00,
2013-02-02 09:52:00,15.0,-1.0,-100.00,NE,46,10.0,19.0,49,0.00,,,0.00,,2013-02-02 18:52:00,
2013-02-02 10:00:00,16.0,-1.0,-100.00,NE,50,10.0,19.0,47,0.00,,,0.00,,2013-02-02 19:00:00,
2013-02-02 10:32:00,16.0,-1.0,-100.00,NE,50,10.0,19.0,47,0.00,,,0.00,,2013-02-02 19:32:00,
2013-02-02 10:42:00,16.0,-1.0,-100.00,NE,50,10.0,19.0,47,0.00,,,0.00,,2013-02-02 19:42:00,
2013-02-02 10:52:00,16.0,-1.0,-100.00,NE,50,10.0,19.0,47,0.00,,,0.00,,2013-02-02 19:52:00,
2013-02-02 11:00:00,20.0,1.0,-100.00,NE,52,9.0,19.0,44,0.00,,,0.00,,2013-02-02 20:00:00,
2013-02-02 11:32:00,20.0,1.0,-100.00,NE,52,9.0,19.0,44,0.00,,,0.00,,2013-02-02 20:32:00,
2013-02-02 11:42:00,20.0,1.0,-100.00,NE,52,9.0,19.0,44,0.00,,,0.00,,2013-02-02 20:42:00,
2013-02-02 11:52:00,20.0,1.0,-100.00,NE,52,9.0,19.0,44,0.00,,,0.00,,2013-02-02 20:52:00,
2013-02-02 12:00:00,22.0,3.0,-100.00,NE,55,7.0,16.0,44,0.00,,,0.00,,2013-02-02 21:00:00,
2013-02-02 12:32:00,22.0,3.0,-100.00,NE,55,7.0,16.0,44,0.00,,,0.00,,2013-02-02 21:32:00,
2013-02-02 12:42:00,22.0,3.0,-100.00,NE,55,7.0,16.0,44,0.00,,,0.00,,2013-02-02 21:42:00,
2013-02-02 12:52:00,22.0,3.0,-100.00,NE,55,7.0,16.0,44,0.00,,,0.00,,2013-02-02 21:52:00,
2013-02-02 13:00:00,21.0,4.0,-100.00,NE,53,8.0,15.0,48,0.00,,,0.00,,2013-02-02 22:00:00,
2013-02-02 13:32:00,21.0,4.0,-100.00,NE,53,8.0,15.0,48,0.00,,,0.00,,2013-02-02 22:32:00,
2013-02-02 13:42:00,21.0,4.0,-100.00,NE,53,8.0,15.0,48,0.00,,,0.00,,2013-02-02 22:42:00,
2013-02-02 13:52:00,21.0,4.0,-100.00,NE,53,8.0,15.0,48,0.00,,,0.00,,2013-02-02 22:52:00,
2013-02-02 14:00:00,21.0,6.0,-100.00,NE,53,6.0,12.0,51,0.00,,,0.00,,2013-02-02 23:00:00,
2013-02-02 14:32:00,21.0,6.0,-100.00,NE,53,6.0,12.0,51,0.00,,,0.00,,2013-02-02 23:32:00,
2013-02-02 14:42:00,21.0,6.0,-100.00,NE,53,6.0,12.0,51,0.00,,,0.00,,2013-02-02 23:42:00,
2013-02-02 14:52:00,21.0,6.0,-100.00,NE,53,6.0,12.0,51,0.00,,,0.00,,2013-02-02 23:52:00,
2013-02-02 15:00:00,24.0,8.0,-100.00,NE,55,5.0,12.0,50,0.00,,,0.00,,2013-02-03 00:00:00,
2013-02-02 15:32:00,24.0,8.0,-100.00,NE,55,5.0,12.0,50,0.00,,,0.00,,2013-02-03 00:32:00,
2013-02-02 15:42:00,24.0,8.0,-100.00,NE,55,5.0,12.0,50,0.00,,,0.00,,2013-02-03 00:42:00,
2013-02-02 15:52:00,24.0,8.0,-100.00,NE,55,5.0,12.0,50,0.00,,,0.00,,2013-02-03 00:52:00,
2013-02-02 16:00:00,22.0,8.0,-100.00,NE,53,6.0,12.0,55,0.00,,,0.00,,2013-02-03 01:00:00,
2013-02-02 16:32:00,22.0,8.0,-100.00,NE,53,6.0,12.0,55,0.00,,,0.00,,2013-02-03 01:32:00,
2013-02-02 16:42:00,22.0,8.0,-100.00,NE,53,6.0,12.0,55,0.00,,,0.00,,2013-02-03 01:42:00,
2013-02-02 16:52:00,22.0,8.0,-100.00,NE,53,6.0,12.0,55,0.00,,,0.00,,2013-02-03 01:52:00,
2013-02-02 17:00:00,20.0,8.0,-100.00,NE,48,4.0,10.0,60,0.00,,,0.00,,2013-02-03 02:00:00,
2013-02-02 17:32:00,20.0,8.0,-100.00,NE,48,4.0,10.0,60,0.00,,,0.00,,2013-02-03 02:32:00,
2013-02-02 17:42:00,20.0,8.0,-100.00,NE,48,4.0,10.0,60,0.00,,,0.00,,2013-02-03 02:42:00,
2013-02-02 17:52:00,20.0,8.0,-100.00,NE,48,4.0,10.0,60,0.00,,,0.00,,2013-02-03 02:52:00,
2013-02-02 18:00:00,19.0,8.0,-100.00,NE,46,3.0,8.0,61,0.00,,,0.00,,2013-02-03 03:00:00,
2013-02-02 18:32:00,19.0,8.0,-100.00,NE,46,3.0,8.0,61,0.00,,,0.00,,2013-02-03 03:32:00,
2013-02-02 18:42:00,19.0,8.0,-100.00,NE,46,3.0,8.0,61,0.00,,,0.00,,2013-02-03 03:42:00,
2013-02-02 18:52:00,19.0,8.0,-100.00,NE,46,3.0,8.0,61,0.00,,,0.00,,2013-02-03 03:52:00,
2013-02-02 19:00:00,20.0,8.0,-100.00,NNE,18,4.0,8.0,60,0.00,,,0.00,,2013-02-03 04:00:00,
2013-02-02 19:32:00,20.0,8.0,-100.00,NNE,18,4.0,8.0,60,0.00,,,0.00,,2013-02-03 04:32:00,
2013-02-02 19:42:00,20.0,8.0,-100.00,NNE,18,4.0,8.0,60,0.00,,,0.00,,2013-02-03 04:42:00,
2013-02-02 19:52:00,20.0,8.0,-100.00,NNE,18,4.0,8.0,60,0.00,,,0.00,,2013-02-03 04:52:00,
2013-02-02 20:00:00,21.0,9.0,-100.00,NNE,16,5.0,11.0,59,0.00,,,0.00,,2013-02-03 05:00:00,
2013-02-02 20:32:00,21.0,9.0,-100.00,NNE,16,5.0,11.0,59,0.00,,,0.00,,2013-02-03 05:32:00,
2013-02-02 20:42:00,21.0,9.0,-100.00,NNE,16,5.0,11.0,59,0.00,,,0.00,,2013-02-03 05:42:00,
2013-02-02 20:52:00,21.0,9.0,-100.00,NNE,16,5.0,11.0,59,0.00,,,0.00,,2013-02-03 05:52:00,
2013-02-02 21:00:00,22.0,9.0,-100.00,North,3,5.0,9.0,58,0.00,,,0.00,,2013-02-03 06:00:00,
2013-02-02 21:32:00,22.0,9.0,-100.00,North,3,5.0,9.0,58,0.00,,,0.00,,2013-02-03 06:32:00,
2013-02-02 21:42:00,22.0,9.0,-100.00,North,3,5.0,9.0,58,0.00,,,0.00,,2013-02-03 06:42:00,
2013-02-02 21:52:00,22.0,9.0,-100.00,North,3,5.0,9.0,58,0.00,,,0.00,,2013-02-03 06:52:00,
2013-02-02 22:00:00,24.0,11.0,-100.00,North,358,6.0,11.0,57,-99.99,,,0.00,,2013-02-03 07:00:00,
2013-02-02 22:32:00,24.0,11.0,-100.00,North,358,6.0,11.0,57,-99.99,,,0.00,,2013-02-03 07:32:00,
2013-02-02 22:42:00,24.0,11.0,-100.00,North,358,6.0,11.0,57,-99.99,,,0.00,,2013-02-03 07:42:00,
2013-02-02 22:52:00,24.0,11.0,-100.00,North,358,6.0,11.0,57,-99.99,,,0.00,,2013-02-03 07:52:00,
2013-02-02 23:00:00,25.0,12.0,-100.00,North,0,5.0,12.0,58,-99.99,,,0.00,,2013-02-03 08:00:00,
2013-02-02 23:32:00,25.0,12.0,-100.00,North,0,5.0,12.0,58,-99.99,,,0.00,,2013-02-03 08:32:00,
2013-02-02 23:42:00,25.0,12.0,-100.00,North,0,5.0,12.0,58,-99.99,,,0.00,,2013-02-03 08:42:00,
2013-02-02 23:52:00,25.0,12.0,-100.00,North,0,5.0,12.0,58,-99.99,,,0.00,,2013-02-03 08:52:00,